User: anonymous   Login
Location: Fort Wayne
(41.1310°N, 85.1290°W)
Time: 02:45:58
(UTC-04:00)
Language:

Oscar 19 - Orbit

View from above orbital plane
View from above orbital plane
View from above satellite
View from above satellite

Ground track
Ground track

The orbit data is extracted from the following two-line orbital elements,

1 20442U 90005G   18116.81860740  .00000001  00000-0  16429-4 0  9994
2 20442  98.6069  55.6360 0010833 305.7547  54.2629 14.32893445476539
Epoch (UTC): 26 April 2018 19:38:47
Eccentricity: 0.0010833
inclination: 98.6069°
perigee height: 774 km
apogee height: 790 km
right ascension of ascending node: 55.6360°
argument of perigee: 305.7547°
revolutions per day: 14.32893445
mean anomaly at epoch: 54.2629°
orbit number at epoch: 47653

The dashed part of the orbit path shows where the satellite is in the earth's shadow,  

DLR